Wind_Speed
48 47 47 50 54 55 54 53 51 49 48 45 43 40 38 37 36 38 40 39 40 36 31 32 29 25 27 30 33 37 39 41 44 46 46 47 49 50 51 52 52 51 50 49 48 47 46 45 45 45 45 45 44 44 44 44 44 43 42 41 41 41 40 40 40 40 39 40 40 40 40 41 40 39 38 39 40 41 41 42 42 43 44 44 45 44
53 51 50 54 57 57 56 57 56 55 53 51 48 45 41 40 38 39 42 42 42 38 33 34 33 29 30 31 33 36 36 40 45 47 47 48 50 52 53 53 53 52 51 50 49 49 49 49 48 47 47 47 46 46 46 46 46 47 47 46 44 43 42 42 42 41 41 41 40 40 41 42 42 41 41 41 42 43 43 44 44 44 45 45 45 44
57 54 55 58 59 58 58 59 60 59 58 56 54 51 45 45 44 40 43 45 45 42 38 38 37 35 35 34 34 36 36 40 46 48 50 51 52 54 56 55 55 55 53 52 51 51 51 52 51 51 51 50 49 48 49 49 48 48 49 49 48 46 44 44 43 43 43 43 42 42 43 44 44 43 44 44 45 45 46 47 47 47 47 47 46 45
59 58 59 62 62 62 62 63 64 62 60 59 60 57 50 50 49 43 43 47 47 46 43 42 41 39 39 36 34 37 36 39 46 49 50 52 53 55 57 57 58 58 56 55 54 54 54 55 54 55 55 54 53 52 52 52 50 50 50 51 51 50 48 46 45 44 44 45 45 45 45 46 46 45 45 46 47 48 48 49 50 49 48 48 47 47
63 63 64 65 66 66 66 66 67 66 63 62 64 62 55 52 53 48 46 46 47 48 47 45 43 42 41 37 35 37 38 39 45 49 50 53 56 57 57 59 60 61 59 58 58 58 59 58 58 58 58 58 57 56 55 54 52 52 51 52 52 52 51 49 47 46 45 46 47 47 47 47 48 47 47 48 49 49 49 50 51 51 50 49 48 49
66 69 69 68 69 69 69 69 71 70 66 64 66 67 61 56 53 51 49 46 44 45 46 47 46 44 43 41 39 40 41 41 44 48 51 55 58 59 59 61 63 63 63 63 62 63 63 62 61 60 59 59 59 59 58 57 56 54 54 54 54 54 53 51 49 48 47 47 47 47 48 48 49 49 50 51 51 51 51 51 51 51 51 50 49 50
69 71 71 71 71 71 72 72 74 74 70 67 69 70 66 58 53 51 50 48 44 42 41 43 43 41 40 43 45 45 46 46 48 51 53 56 60 62 63 63 64 66 67 68 66 66 65 64 62 61 60 60 60 61 60 59 58 57 56 56 55 55 54 51 50 49 49 48 48 48 49 49 49 50 51 52 51 51 52 52 52 52 52 51 51 51
71 72 72 73 73 73 74 76 76 77 74 69 69 70 65 61 57 55 53 51 48 45 42 41 43 40 36 38 44 47 49 50 52 55 56 58 61 63 66 67 67 68 71 73 72 71 69 67 65 63 62 62 62 61 61 60 60 58 57 56 56 56 55 53 52 50 50 50 51 51 52 52 52 52 53 52 52 52 52 52 52 52 52 52 52 52
74 73 73 73 74 75 77 77 76 75 72 67 66 66 64 63 62 61 59 58 56 52 46 46 51 47 39 40 44 47 50 52 54 58 60 62 62 62 65 67 68 70 71 73 74 73 72 70 68 67 66 66 65 63 62 61 60 58 57 56 55 56 56 55 53 52 52 53 54 55 55 55 55 55 55 55 54 54 54 54 54 53 52 53 52 53
76 74 72 71 71 72 73 73 73 72 71 68 67 66 66 67 66 66 65 65 65 60 53 54 62 59 48 46 49 48 52 56 60 65 68 69 70 67 66 67 69 70 69 70 71 72 71 70 69 69 69 68 67 65 63 61 60 59 58 57 56 57 57 57 56 55 55 54 55 56 57 57 57 57 57 58 58 58 58 57 56 56 55 55 54 54
76 74 73 72 71 71 72 74 74 74 74 73 72 71 71 71 70 71 70 71 72 66 62 64 69 68 57 53 58 60 63 66 69 74 77 79 79 76 73 73 72 73 73 72 72 72 72 72 72 72 71 71 70 70 68 65 64 63 62 61 60 59 59 59 59 58 57 56 55 56 57 58 59 59 59 60 61 62 61 61 60 60 59 58 58 57
75 74 74 74 75 75 77 78 78 79 79 79 78 77 78 77 76 76 75 76 77 72 71 73 75 73 63 59 65 70 75 77 78 80 83 86 87 84 81 80 79 80 80 80 78 77 76 76 77 77 77 76 75 76 76 75 72 70 68 67 66 65 64 64 65 65 64 62 61 60 60 61 61 62 62 62 63 63 63 64 63 63 62 62 62 62
76 76 77 78 78 80 81 82 82 83 84 84 85 85 86 85 84 84 83 84 83 79 78 78 79 76 68 67 72 76 80 84 84 85 87 90 91 90 90 87 86 87 87 87 86 85 84 83 83 83 83 82 80 80 82 83 82 79 76 74 73 72 71 70 70 71 71 69 67 66 64 64 64 64 64 64 64 64 65 65 65 65 65 66 66 67
81 79 80 82 83 84 86 88 88 89 89 90 91 92 93 92 92 92 92 92 88 85 84 84 83 78 72 74 79 82 86 88 88 90 91 92 94 96 97 97 96 95 93 93 92 92 92 91 90 90 89 89 88 87 85 85 85 85 83 81 78 77 76 75 74 73 73 73 72 71 69 68 67 67 67 67 67 67 67 66 66 66 67 68 69 71
89 84 82 85 88 88 89 92 94 94 95 95 96 97 97 96 98 101 102 100 95 93 92 90 88 82 77 79 83 87 92 94 94 94 95 97 100 102 104 104 104 102 99 98 97 96 96 96 96 95 94 93 92 91 90 88 87 86 86 85 84 82 81 80 79 78 77 76 75 75 75 74 73 73 72 72 71 71 71 70 70 70 70 71 72 73
95 90 86 89 92 91 92 95 98 100 101 101 101 102 102 103 106 109 110 108 106 105 102 97 94 88 84 86 89 94 99 100 99 99 100 104 107 110 111 110 109 107 105 103 102 101 100 99 99 98 97 96 95 94 93 92 91 90 89 88 87 87 86 85 84 83 83 82 80 79 79 78 78 78 78 78 78 77 77 77 77 77 77 78 78 78
101 96 92 94 97 96 96 97 100 103 105 105 106 107 108 110 112 113 114 114 114 113 109 104 103 99 96 97 97 100 104 103 103 103 106 110 112 113 113 112 111 109 108 107 106 105 104 104 103 101 101 100 98 97 95 94 95 94 94 92 91 90 89 89 88 87 87 87 87 85 84 83 82 82 83 83 84 84 85 85 86 86 86 86 86 86
108 104 100 99 102 103 103 103 104 105 107 109 111 112 113 114 115 116 118 119 119 119 115 112 110 107 106 105 104 107 110 109 109 111 113 114 114 113 112 112 112 111 110 110 109 109 109 109 108 107 106 105 103 101 98 97 97 97 97 97 96 95 94 93 93 92 92 92 91 91 90 89 87 87 86 87 88 89 90 91 91 92 92 92 93 93
113 113 108 104 105 108 109 109 109 110 111 114 115 116 116 117 118 119 122 123 124 125 124 121 118 115 113 111 111 114 116 115 116 117 118 118 116 115 115 115 114 114 113 113 113 112 113 113 113 113 112 111 109 107 105 103 101 101 101 101 101 101 100 100 99 98 98 97 97 95 94 93 93 92 92 91 92 92 93 94 95 95 96 97 97 98
118 120 117 111 110 113 114 113 113 115 118 119 120 120 121 121 122 124 126 127 129 130 130 129 127 123 118 115 116 118 118 117 118 118 119 119 120 120 120 119 119 119 118 118 118 117 117 118 119 119 118 117 116 114 112 109 107 106 105 105 105 105 105 105 105 104 103 103 102 101 100 98 97 97 96 96 96 96 97 97 98 98 99 100 101 102
123 125 124 120 117 117 118 118 120 122 123 124 124 125 126 126 127 129 130 131 132 133 133 133 132 129 122 118 119 120 120 120 120 121 122 123 124 125 125 125 126 126 126 125 125 124 123 123 124 124 124 123 121 119 117 115 113 112 111 110 109 109 109 109 109 109 109 108 107 106 105 104 103 102 101 100 100 100 101 101 101 101 102 103 104 106
126 128 129 127 124 122 122 123 125 126 126 127 129 130 129 129 130 132 132 132 133 134 135 136 136 133 128 125 124 125 126 127 127 128 128 129 130 130 130 129 129 128 128 127 127 126 126 126 126 127 127 126 125 124 122 120 118 116 115 114 113 113 112 112 112 113 113 113 113 113 111 110 109 108 107 106 106 105 105 105 105 105 105 106 107 108
131 132 133 132 131 129 128 128 128 129 130 131 132 132 132 132 133 134 135 134 135 136 137 139 140 139 136 133 133 133 134 134 134 134 133 133 132 130 129 128 127 127 127 127 127 127 126 127 127 127 128 128 127 126 125 124 122 121 120 119 117 116 116 115 115 116 116 117 117 117 117 116 115 115 113 113 112 112 112 111 111 111 111 112 112 113
134 135 135 135 134 133 131 130 131 132 133 134 135 135 135 135 136 137 139 140 141 142 142 143 144 144 141 140 140 140 140 139 138 137 135 134 132 130 129 128 127 126 126 125 126 126 126 127 127 127 128 128 128 128 127 126 126 125 124 123 122 121 120 119 118 119 119 119 120 120 120 120 120 120 120 120 119 119 118 118 118 118 118 118 119 119
136 136 137 137 137 136 134 132 133 135 137 138 139 139 139 139 140 141 142 144 146 146 146 146 146 145 143 142 142 142 141 140 139 138 136 134 133 131 130 128 127 126 125 124 124 124 125 125 126 127 127 128 128 129 129 129 128 128 127 126 126 125 124 123 123 123 123 123 124 123 123 123 123 124 124 125 126 126 126 125 125 125 125 126 126 127
139 139 139 140 140 140 137 136 135 137 140 142 142 142 142 142 143 143 144 145 146 146 146 146 145 143 141 140 139 138 137 137 137 135 133 131 130 128 127 125 125 124 124 124 124 124 125 126 126 127 128 129 129 130 131 131 131 132 131 131 130 129 129 128 128 129 129 129 129 129 129 128 128 128 129 130 131 132 133 133 133 133 133 133 134 134
143 143 143 143 144 144 142 140 139 141 143 144 143 142 141 141 141 141 141 141 141 141 141 140 138 137 136 134 132 131 131 131 130 129 127 125 123 122 121 121 120 121 121 122 123 123 124 125 126 127 129 130 131 132 133 133 134 134 134 134 134 133 133 133 133 133 134 134 135 135 135 134 134 134 134 135 136 136 138 139 139 138 138 138 138 138
148 147 146 147 148 146 144 141 140 140 141 140 138 135 133 131 131 131 132 131 131 133 133 131 129 129 129 127 125 125 125 124 124 123 122 121 119 118 117 117 116 117 117 117 118 119 121 122 123 124 126 127 129 131 132 133 134 134 134 135 135 135 135 135 136 136 136 136 137 137 138 138 138 138 138 139 139 140 140 141 141 141 140 141 140 140
148 147 145 145 144 142 138 136 134 133 133 132 129 126 123 120 120 121 123 123 125 128 128 125 123 124 123 122 121 121 121 120 120 120 119 118 117 116 115 114 114 114 114 114 115 115 116 117 119 120 122 123 124 126 127 129 130 130 131 132 132 132 133 133 134 135 135 136 136 137 138 138 139 139 139 140 140 141 141 141 141 141 140 140 141 141
141 139 137 137 136 133 130 128 127 128 127 124 121 119 115 113 113 116 118 120 122 124 124 122 120 119 118 118 119 119 118 117 117 116 116 115 115 114 113 112 112 111 111 112 112 113 113 114 115 116 117 119 120 121 122 123 124 125 126 126 127 127 128 128 129 130 130 131 132 133 134 134 135 136 136 137 138 138 139 139 138 138 137 137 137 137
133 131 130 130 130 127 124 122 123 124 122 119 115 112 109 109 112 116 117 118 120 120 119 119 119 117 115 115 117 117 117 115 114 113 113 113 113 113 112 111 110 110 109 109 110 111 111 112 113 113 114 115 116 117 118 119 120 120 121 122 123 123 123 124 124 125 125 126 127 128 129 129 130 131 131 132 133 133 133 133 133 132 132 132 132 132
128 127 126 126 127 123 119 119 120 120 119 115 109 106 107 111 114 116 116 117 118 118 118 117 117 115 114 114 115 115 114 113 112 111 110 111 111 111 111 111 110 109 109 109 109 109 110 110 111 111 112 112 113 114 115 116 116 117 118 119 119 120 121 121 121 122 123 123 123 123 124 125 125 126 127 127 128 129 130 130 129 128 128 127 127 128
124 124 123 124 124 121 117 117 118 118 116 109 103 104 108 111 112 114 114 115 116 117 117 116 115 114 113 113 113 113 112 111 109 108 108 108 109 109 109 109 109 109 109 109 109 109 109 109 109 110 110 111 111 112 113 114 114 114 115 116 117 118 118 118 119 120 120 121 121 121 121 122 122 123 123 124 124 125 127 127 128 127 126 125 124 125
121 122 122 122 122 119 115 114 116 116 110 102 100 105 108 108 109 110 111 110 111 112 114 113 112 112 111 110 110 110 109 108 107 106 106 106 106 107 107 108 108 108 109 109 109 109 109 109 109 109 109 109 110 111 112 113 113 113 112 113 114 115 116 117 117 118 118 119 119 119 119 120 120 121 121 122 122 122 123 124 125 126 126 125 124 123
119 119 120 120 119 117 113 112 113 110 103 98 99 101 102 105 107 107 105 104 105 106 108 109 110 110 109 108 107 106 106 105 103 102 102 103 104 104 105 105 106 107 108 108 109 109 109 109 109 109 109 109 109 109 110 112 112 112 111 111 112 112 113 114 114 115 116 116 116 116 117 117 118 118 119 120 121 121 122 122 123 124 124 124 124 123
117 117 116 116 115 114 111 109 108 104 97 95 95 96 99 103 104 103 100 99 99 101 103 106 107 107 107 106 106 105 104 102 99 98 99 101 103 104 103 102 103 104 106 106 107 107 107 107 108 108 108 108 109 110 110 111 111 111 111 111 112 112 112 112 112 113 113 113 112 113 114 115 116 116 117 117 118 119 120 121 122 122 122 122 123 123
115 114 113 112 110 109 107 105 103 100 95 91 92 94 98 101 100 99 98 95 95 98 101 103 105 105 105 105 105 104 103 101 98 96 97 101 103 104 104 102 102 102 104 105 105 106 106 106 106 106 106 107 107 109 110 110 110 110 110 110 111 112 112 112 112 113 112 111 109 108 110 111 113 114 115 116 116 117 118 120 121 122 122 121 121 121
111 111 111 110 107 105 105 103 99 97 93 91 92 95 99 100 98 98 98 95 92 95 100 103 103 103 104 105 104 104 103 101 98 96 97 101 103 105 105 104 103 103 103 104 105 105 105 105 104 104 104 104 105 107 108 108 108 108 108 108 109 110 111 111 113 114 113 110 108 108 108 109 110 111 112 113 114 115 116 118 119 121 122 122 121 120
107 107 107 108 106 104 105 104 99 96 94 94 95 98 99 99 98 99 100 96 91 94 100 101 100 101 103 104 104 103 103 101 99 97 98 101 102 104 106 106 105 104 104 104 104 105 105 105 104 104 104 104 105 106 106 106 106 105 105 105 107 108 108 110 111 112 111 110 109 109 110 110 110 110 110 111 112 113 114 115 117 118 120 122 122 122
104 105 105 106 104 103 104 104 101 98 95 96 100 101 99 98 98 100 100 96 92 94 97 98 98 99 101 102 102 102 101 101 100 98 98 99 100 102 105 106 106 105 105 104 104 104 104 103 103 103 103 104 105 105 105 105 104 103 102 103 104 105 107 108 108 108 108 108 109 109 110 111 111 111 111 111 111 112 113 113 114 116 118 119 120 121
103 103 103 102 102 102 103 103 100 96 94 97 102 103 100 98 99 98 97 96 95 94 93 95 97 97 98 99 100 100 101 100 100 98 97 97 98 100 102 104 105 104 104 104 103 103 102 101 101 101 101 102 103 103 104 103 102 100 100 101 101 102 104 104 103 103 104 105 106 107 108 110 110 111 111 111 111 112 112 113 114 115 116 117 118 119
102 102 101 99 100 102 101 100 98 94 93 97 102 102 100 100 99 96 95 95 94 92 91 92 93 95 96 96 96 97 98 97 97 97 96 95 96 97 99 101 102 102 102 101 101 101 100 99 99 99 99 99 100 101 101 101 99 98 98 98 99 100 100 99 98 99 100 101 102 103 105 107 108 109 109 109 110 110 110 110 112 113 115 116 117 117
102 101 99 97 99 100 97 95 95 95 95 97 99 98 98 98 97 95 94 93 92 91 90 90 91 92 94 93 93 93 94 94 94 94 94 93 93 94 95 96 97 98 98 98 99 98 97 96 95 96 96 96 97 98 98 98 96 95 95 96 97 97 96 95 95 95 95 96 97 98 100 102 104 105 106 106 107 108 108 107 108 110 112 113 114 116
99 99 97 95 97 97 93 91 94 98 96 95 95 96 96 95 95 94 93 91 89 89 90 90 89 90 90 90 90 90 90 90 91 91 91 91 91 91 92 92 93 93 94 94 94 94 94 93 92 92 92 93 94 95 96 95 94 93 93 94 94 94 94 93 93 93 93 93 94 95 97 98 99 100 101 102 103 104 104 104 105 107 108 109 111 112
96 97 95 93 94 94 90 88 94 99 94 90 91 93 94 93 92 91 89 87 86 86 87 88 87 87 88 88 87 87 87 87 87 88 88 88 88 89 89 89 90 90 90 90 90 90 90 90 90 90 90 91 93 94 94 94 93 92 91 92 92 93 93 92 92 92 92 92 93 93 94 95 95 96 97 99 100 100 100 100 102 103 104 105 106 107
95 96 93 90 91 91 88 88 94 96 90 87 89 90 91 90 88 88 87 85 84 84 84 85 85 85 85 85 85 85 85 85 85 86 86 86 87 87 88 87 88 88 88 88 88 89 89 89 89 89 89 89 91 92 92 93 93 92 90 90 91 92 91 91 91 91 91 91 92 92 93 93 94 94 95 97 97 98 97 98 99 100 101 102 103 103
94 93 89 88 90 90 87 87 92 92 87 85 87 88 88 88 87 86 86 84 83 82 82 82 83 83 83 83 83 83 83 84 84 84 85 86 86 86 87 87 87 87 88 88 88 88 88 88 88 88 88 88 89 91 91 91 91 91 90 89 90 90 89 88 88 88 88 89 91 91 92 92 92 92 93 95 96 96 96 95 96 97 98 99 100 101
93 89 86 87 89 87 85 86 89 89 85 83 84 86 86 86 85 85 85 83 82 81 80 80 81 81 81 82 82 82 83 84 84 84 85 85 86 86 86 86 86 87 88 88 89 89 88 87 87 87 87 87 88 88 88 89 89 89 88 87 87 86 84 83 84 84 85 86 87 88 88 89 89 89 90 91 92 93 93 93 94 94 94 95 98 99
91 86 85 86 85 84 84 85 87 87 83 80 83 85 84 83 83 84 83 82 82 81 80 80 80 80 81 81 81 82 82 83 84 84 84 84 85 85 85 86 86 87 88 88 88 88 87 86 85 84 84 85 85 85 84 85 86 86 86 85 83 82 81 80 80 80 81 82 83 83 84 85 86 86 86 87 88 89 89 90 91 91 91 92 94 97
89 83 83 85 83 80 82 84 86 86 81 79 82 84 83 83 83 82 81 81 81 81 81 81 81 81 82 82 82 82 83 83 83 83 83 83 83 84 84 85 85 86 86 86 85 84 84 83 82 81 81 81 81 81 81 81 82 83 84 83 81 79 78 77 77 78 79 80 80 80 81 82 82 83 83 83 84 85 85 86 87 88 88 88 91 93
87 81 82 84 81 78 79 81 84 84 81 79 80 81 81 82 82 81 81 81 81 81 82 82 82 82 83 83 83 83 82 82 83 83 83 83 83 83 83 83 82 82 82 82 80 80 80 80 80 79 79 78 78 78 78 79 80 81 81 80 78 77 76 76 76 76 77 78 79 79 79 79 79 80 80 80 81 81 81 82 83 85 85 85 87 89
Wind_Direction
281 283 286 286 284 286 289 291 290 290 291 289 286 282 277 272 268 267 266 265 264 262 261 264 264 262 263 262 264 267 271 273 272 271 272 273 273 272 271 272 273 276 279 281 283 283 282 279 277 278 280 281 283 284 285 286 285 284 283 281 278 277 275 274 272 271 271 272 273 274 273 271 269 268 267 267 266 267 266 266 265 265 263 263 262 262
279 282 284 282 283 285 287 287 288 289 290 290 287 282 278 273 268 266 267 265 264 261 253 254 258 259 260 261 262 266 269 270 270 270 271 272 274 273 273 274 275 276 277 278 278 279 278 276 275 275 276 278 279 282 283 284 284 285 284 283 281 280 278 276 274 273 272 272 274 276 275 272 270 268 267 267 268 268 267 266 265 265 265 266 266 266
280 282 282 281 281 283 283 284 286 287 289 289 287 283 279 275 270 266 266 264 263 261 254 251 253 252 255 258 260 262 265 268 269 270 271 273 274 274 275 276 277 277 276 276 275 275 274 274 274 275 276 277 278 280 281 281 282 283 283 282 282 280 279 277 276 275 273 273 275 276 276 274 272 271 269 268 268 267 266 266 265 266 266 267 267 267
283 282 280 280 281 281 282 282 283 284 285 286 286 284 280 276 273 267 264 263 262 261 256 253 252 251 251 252 254 258 260 265 269 271 272 273 274 275 277 278 278 277 277 276 275 273 273 273 274 276 278 279 279 279 279 279 279 279 280 280 281 280 278 277 276 275 273 273 274 275 275 275 275 274 272 271 270 269 267 267 267 267 267 267 267 267
284 282 281 280 280 281 281 282 282 282 283 284 285 283 281 278 275 271 266 264 262 262 259 255 251 250 250 248 248 252 255 259 265 270 272 273 273 274 275 277 277 278 278 276 275 274 274 274 275 276 279 280 280 279 279 277 276 276 276 277 278 278 277 275 274 273 273 273 273 274 274 273 273 273 273 273 272 272 272 271 271 271 270 269 267 265
284 283 282 281 281 282 282 282 281 281 281 282 282 282 281 279 277 275 272 268 264 263 263 262 258 252 252 251 249 251 252 253 257 264 269 272 273 274 274 275 276 277 277 276 274 274 274 274 275 277 278 279 280 280 279 278 276 274 273 274 275 276 277 275 274 273 273 273 273 273 273 272 272 272 272 273 273 274 275 274 274 273 272 271 268 266
282 282 282 282 282 282 282 282 282 281 281 280 280 279 279 279 278 277 277 274 269 264 262 265 264 257 255 254 254 257 256 256 258 259 263 267 271 273 274 275 275 277 277 277 276 275 275 275 276 277 278 278 279 279 279 278 276 274 272 272 272 273 274 274 274 274 275 276 276 275 273 272 272 271 272 273 274 274 274 274 274 274 273 272 270 268
279 280 281 281 282 282 282 281 280 280 280 279 278 278 280 281 282 282 282 279 276 270 263 265 266 259 253 255 258 261 263 264 265 264 264 266 269 272 275 276 276 277 277 278 278 277 278 278 278 278 278 277 277 277 277 277 276 276 275 273 272 271 270 270 271 273 274 276 276 275 274 273 272 272 273 273 274 274 274 273 273 273 273 272 271 270
278 279 280 280 280 280 279 279 280 281 281 281 281 282 283 285 286 286 286 285 284 278 272 274 277 268 254 256 262 263 264 265 267 269 268 268 269 269 271 274 277 278 279 280 281 281 280 280 280 279 278 278 277 277 276 276 276 276 275 273 271 268 267 268 270 272 274 275 274 273 273 273 273 274 274 275 274 274 274 273 272 271 270 271 271 271
276 278 279 280 281 281 281 281 283 284 285 286 286 286 286 287 287 288 288 289 288 284 280 280 284 280 268 266 273 269 264 266 272 276 277 277 277 275 273 273 275 277 279 281 282 282 282 281 281 280 280 279 279 279 278 276 275 274 273 271 270 268 268 269 270 271 272 273 271 270 269 270 270 271 273 273 274 273 273 273 271 270 270 270 270 270
276 279 281 282 283 284 284 285 286 287 287 287 287 287 287 287 288 288 288 288 288 287 287 284 284 284 278 277 284 284 279 278 281 283 284 285 285 284 283 281 280 279 280 280 280 280 280 281 280 281 281 281 281 282 280 278 275 274 272 271 270 269 268 269 269 270 271 270 269 268 267 266 266 267 268 269 270 270 271 272 271 270 270 270 269 269
279 282 283 283 285 285 286 286 287 288 287 286 286 287 287 288 288 288 288 288 287 287 288 286 284 284 282 283 287 288 286 285 284 285 286 286 287 288 287 288 288 287 286 284 282 281 280 280 281 282 282 282 282 283 284 283 281 279 277 276 274 273 272 270 270 270 270 268 267 266 265 265 265 265 265 265 265 266 267 268 268 269 269 269 269 269
284 286 286 286 286 287 287 288 288 288 287 288 288 289 289 289 289 289 288 287 286 286 285 284 284 284 286 287 287 286 285 285 285 285 285 287 289 289 289 289 289 288 287 286 284 283 283 282 282 283 283 282 282 282 284 285 285 284 282 281 279 278 276 274 272 272 272 271 268 265 263 263 263 263 263 263 264 263 263 264 264 265 265 266 267 268
286 286 287 287 286 287 288 288 288 288 289 289 290 290 289 289 289 288 286 284 285 285 284 283 283 284 286 286 285 285 284 284 284 285 285 286 287 287 287 288 287 286 285 284 284 283 283 283 282 282 283 283 283 282 282 283 283 283 282 280 278 277 275 273 272 271 271 272 271 270 267 265 263 262 262 262 262 262 263 263 263 263 263 263 264 264
286 286 287 286 285 285 286 287 288 288 288 289 289 288 287 288 287 285 283 284 285 283 282 281 282 284 284 283 282 283 283 284 284 285 285 286 285 285 285 286 286 286 285 283 282 282 282 282 282 282 282 282 282 282 281 281 280 279 279 278 277 276 275 273 272 270 269 269 269 269 270 269 268 266 265 264 264 263 262 262 261 262 262 262 262 262
287 287 287 285 284 284 284 284 285 286 286 286 286 286 286 285 284 283 283 284 284 283 282 282 283 283 281 280 279 280 281 282 283 283 283 284 284 284 284 284 284 284 284 282 282 281 280 280 280 280 280 280 280 280 280 279 278 277 276 276 276 275 274 273 272 271 270 270 269 268 268 268 269 269 269 269 269 269 268 267 266 266 265 265 265 264
285 285 285 284 283 283 282 282 282 282 282 283 283 283 283 282 281 282 283 283 283 282 282 283 282 282 280 279 278 278 279 279 279 279 280 282 283 282 282 282 282 282 281 281 280 280 280 279 279 279 279 279 278 278 278 278 278 277 277 276 276 275 274 273 271 270 269 269 269 269 268 267 268 269 270 270 271 272 272 272 272 272 272 272 271 271
284 284 283 282 282 281 280 279 279 279 280 280 280 279 279 279 280 281 282 282 282 282 282 281 281 280 280 279 279 279 279 278 278 278 279 280 280 280 280 280 280 280 279 279 279 279 279 279 279 279 279 278 278 277 276 276 276 276 276 277 277 276 275 275 274 273 271 270 269 268 267 266 266 266 267 268 270 271 272 272 273 273 273 274 274 275
281 281 280 280 279 279 279 279 279 279 278 277 277 277 277 278 279 279 280 280 280 281 281 280 280 279 279 279 279 279 278 279 278 279 280 280 280 279 279 278 278 278 278 278 278 278 278 278 278 278 278 278 278 277 276 276 275 275 275 275 276 276 276 276 275 275 274 274 272 271 269 267 266 265 265 265 266 268 270 271 271 272 272 272 273 274
279 279 279 278 278 277 278 279 279 278 277 277 277 277 277 277 277 278 278 279 279 280 281 281 280 279 278 278 278 277 278 278 278 279 279 279 279 279 279 279 279 278 278 278 278 277 277 277 277 277 277 277 277 277 276 276 275 275 274 274 274 275 276 276 276 275 275 274 274 273 272 271 269 267 266 265 265 265 266 267 268 270 270 271 272 273
278 278 278 278 277 277 277 278 277 277 277 277 278 278 278 278 278 278 278 279 280 280 280 280 280 279 279 278 277 277 277 277 277 277 277 277 278 278 278 279 279 279 279 278 278 278 277 277 277 277 277 277 276 276 275 275 275 275 274 274 274 274 274 274 275 275 275 275 274 273 272 272 271 270 269 267 266 265 265 265 265 266 267 268 269 270
277 277 277 278 277 277 277 276 276 277 277 277 277 278 278 278 278 278 279 279 280 280 281 281 281 281 280 280 279 278 278 278 277 277 277 277 277 277 277 277 277 277 277 277 277 276 276 276 276 276 276 276 276 276 276 275 275 274 274 273 273 273 273 273 273 274 274 274 274 274 273 272 271 270 270 269 268 267 266 266 266 266 266 266 266 266
277 277 277 278 278 277 277 276 276 277 277 277 277 277 278 278 279 279 280 280 280 280 280 281 281 281 281 281 280 279 279 279 278 278 277 277 277 276 276 276 275 275 274 274 274 274 274 274 274 274 274 275 275 275 275 275 275 274 274 273 272 272 271 271 271 271 272 272 273 273 273 273 272 271 270 269 268 268 267 267 267 266 266 266 266 265
277 277 277 277 277 277 277 277 277 277 277 277 277 277 277 278 278 279 279 280 280 279 279 279 280 280 281 281 280 279 279 278 278 277 277 276 276 275 275 274 273 273 272 271 271 271 271 272 272 272 272 273 273 273 273 273 273 273 273 272 272 271 271 270 270 269 269 270 270 271 271 271 271 271 271 271 270 269 268 267 267 267 266 266 266 266
277 278 278 278 278 278 277 277 277 277 277 277 277 277 278 278 278 278 279 279 279 279 279 279 279 279 279 279 279 279 278 278 277 276 275 275 274 274 273 272 272 271 270 269 268 268 268 268 268 269 269 270 270 270 271 271 271 271 270 270 270 269 269 269 268 268 268 267 267 267 268 268 268 268 269 269 269 269 268 267 267 267 266 266 265 265
279 279 279 279 279 279 278 278 277 277 277 277 278 278 278 278 278 278 278 278 278 279 279 278 278 278 278 277 277 277 277 276 276 275 275 275 274 273 272 271 270 269 269 268 267 266 265 264 264 265 265 266 266 266 267 267 268 268 268 268 268 268 267 267 266 266 266 266 266 265 265 265 265 265 265 266 266 266 266 266 266 266 266 265 265 265
280 280 280 280 280 280 280 279 279 278 278 278 278 278 278 279 279 278 278 278 278 278 278 277 278 277 277 276 276 276 275 275 275 275 275 274 273 273 272 271 270 269 268 268 267 266 265 264 264 263 263 263 263 264 264 265 265 266 266 266 266 266 266 265 265 265 264 264 265 265 264 264 264 264 263 264 264 264 264 265 266 266 266 266 265 265
280 280 280 280 280 280 280 280 279 279 279 278 278 278 278 278 278 279 279 279 278 278 277 277 276 276 276 276 276 276 276 275 275 275 274 274 273 273 272 271 270 269 268 268 267 266 266 265 265 264 264 263 263 263 263 264 264 264 265 265 265 265 265 265 265 265 264 264 264 264 264 264 264 264 264 263 263 263 264 265 265 266 266 266 266 266
280 280 280 280 280 280 280 280 279 279 278 278 278 278 278 278 279 279 278 278 277 277 276 276 276 276 276 277 276 276 276 275 275 275 275 274 274 273 273 272 271 270 269 269 268 267 266 266 266 265 265 264 264 264 264 264 264 264 264 264 265 265 265 265 265 265 265 265 264 264 264 264 264 264 264 264 264 264 264 264 265 265 266 266 266 266
279 280 280 279 279 279 279 280 279 279 279 279 279 280 280 281 280 279 278 277 276 276 276 277 277 276 276 277 276 276 275 275 275 275 275 275 275 274 273 273 272 271 271 270 270 269 268 267 267 266 266 266 265 265 265 265 265 265 264 264 264 264 264 264 264 264 264 264 264 264 264 264 264 264 264 264 263 263 263 263 264 264 264 265 265 266
279 279 279 279 279 279 279 279 279 279 279 280 280 281 283 282 280 278 277 276 276 276 277 277 277 277 276 276 276 275 275 275 275 275 275 275 275 275 274 274 273 273 272 271 271 270 270 269 268 267 267 266 266 266 265 265 265 265 265 265 264 264 264 264 263 263 263 263 263 263 263 264 264 264 264 264 264 263 263 263 263 262 263 263 263 263
279 279 279 279 279 279 280 279 279 279 279 279 281 283 282 280 278 277 277 277 277 277 277 277 277 277 276 276 275 275 275 275 275 275 275 275 275 275 275 274 274 274 273 272 271 271 270 269 269 268 268 267 266 266 265 265 265 264 264 264 264 264 264 264 263 263 263 263 263 262 262 262 263 263 263 264 264 264 264 264 263 263 262 262 262 262
279 279 279 279 279 280 280 280 279 279 278 280 282 281 279 277 277 277 277 277 277 278 277 277 277 277 276 276 275 275 275 275 275 275 275 274 274 274 274 274 274 274 273 272 272 271 270 269 269 268 268 267 267 266 266 265 264 264 264 263 263 263 263 263 263 263 262 262 262 262 262 262 262 262 262 262 263 263 264 264 264 264 263 262 262 262
279 279 279 279 279 280 280 279 279 278 279 281 281 279 278 278 277 277 276 277 277 277 278 278 277 277 276 275 275 275 275 275 275 275 275 275 274 274 274 274 274 273 273 272 272 271 270 270 269 269 268 268 267 267 267 266 266 265 264 263 263 263 263 263 262 262 262 262 262 261 261 261 261 261 262 262 262 262 262 263 263 264 263 263 262 262
279 280 280 280 280 280 280 279 279 279 281 282 280 279 279 279 277 276 276 277 277 278 278 278 278 277 277 276 275 275 274 274 274 274 275 275 274 273 272 272 272 272 272 271 271 271 270 270 270 270 270 269 269 268 268 267 267 267 266 265 264 264 263 263 262 262 262 261 262 261 261 261 261 260 260 260 261 261 261 262 262 262 263 263 263 262
280 280 280 280 280 281 281 280 280 281 282 281 280 280 279 277 277 277 277 277 277 277 277 277 277 277 277 277 276 275 275 275 275 275 275 275 274 273 272 271 271 271 271 270 270 270 270 269 269 269 269 269 269 269 268 268 267 267 267 267 267 266 265 265 264 263 262 261 261 261 261 261 261 260 260 260 260 260 260 261 261 261 261 262 262 262
281 281 281 281 281 281 281 281 281 282 281 281 281 279 278 277 278 278 277 276 276 276 276 276 276 276 276 276 276 276 276 276 276 276 276 275 275 274 273 272 271 271 271 271 270 270 269 269 269 268 268 268 268 268 267 267 267 267 267 267 267 267 267 266 266 265 264 264 263 262 261 260 260 260 260 260 259 259 259 259 260 260 260 260 260 261
281 282 282 282 282 282 283 282 282 282 282 282 281 279 279 279 279 277 276 274 274 275 274 274 274 275 276 276 276 276 276 276 276 276 275 275 275 275 274 274 273 272 272 272 272 271 271 271 270 270 269 269 268 268 268 267 267 267 267 267 267 267 267 267 266 266 266 266 265 264 263 262 261 260 260 259 259 259 258 258 258 259 259 260 260 260
281 281 281 282 282 283 283 284 284 283 283 282 281 280 279 279 278 277 276 275 274 274 274 274 274 275 275 275 276 276 276 277 276 275 274 274 274 275 275 275 274 274 273 273 272 272 272 272 272 272 272 271 271 270 270 269 269 268 268 267 267 267 267 266 266 266 266 266 266 266 265 264 263 262 261 260 259 259 258 257 257 257 258 258 259 260
280 280 280 281 282 283 284 284 283 283 283 283 282 281 279 278 277 276 277 277 276 274 274 275 276 276 276 276 276 276 276 276 275 274 274 274 274 275 275 275 275 275 275 274 274 274 273 273 273 273 273 273 273 272 272 271 270 270 270 269 268 268 267 267 266 267 267 267 266 266 265 265 264 263 262 261 260 259 259 258 257 257 257 257 257 258
279 279 280 281 282 282 282 282 282 283 284 283 282 280 279 278 277 277 278 278 277 276 277 277 277 276 276 276 276 276 276 276 276 275 275 275 274 274 275 275 275 276 276 276 276 275 275 275 275 274 274 274 274 274 273 273 272 272 271 270 269 268 267 267 267 267 267 266 266 266 265 265 264 263 262 262 261 260 259 259 258 258 257 257 256 256
279 280 280 281 281 280 280 281 282 283 282 280 279 279 279 279 279 279 279 279 279 279 278 277 277 277 276 276 276 276 276 277 277 277 276 276 275 275 275 275 275 276 276 276 276 276 276 276 276 276 276 276 275 275 275 274 274 273 272 271 271 270 269 268 267 267 266 265 265 265 265 264 264 263 263 262 262 261 260 259 258 258 258 257 257 257
280 280 280 280 280 280 281 282 282 281 279 278 278 278 279 279 280 280 280 280 280 280 279 278 278 277 277 277 277 277 277 277 277 277 277 277 276 276 275 275 275 276 276 276 276 276 276 276 276 276 276 276 276 275 275 274 274 274 273 273 272 272 271 270 269 268 267 266 266 265 264 264 263 263 263 262 262 261 260 260 259 258 258 257 257 257
279 279 280 280 280 280 281 282 281 279 278 278 279 279 279 280 280 280 280 281 281 281 280 280 279 278 278 278 278 278 278 278 278 278 278 277 277 277 276 276 276 276 276 276 276 277 277 277 277 277 276 276 276 275 275 275 275 274 274 274 273 273 273 272 271 270 269 268 267 266 265 264 264 263 263 262 262 261 261 260 260 259 258 257 257 257
279 280 280 280 280 280 281 280 279 278 278 279 280 280 280 280 280 280 281 281 281 280 280 280 280 280 280 279 280 279 279 279 279 279 278 278 278 277 277 277 277 277 277 277 277 277 278 277 277 277 276 276 276 276 276 276 275 275 274 274 274 273 273 272 272 271 270 269 268 268 267 266 266 265 264 264 263 262 261 261 260 260 259 258 257 256
280 280 280 280 280 280 280 279 278 279 280 281 280 280 280 281 281 281 281 281 280 280 280 280 280 280 280 280 280 280 279 279 279 279 279 279 278 278 278 278 278 278 278 278 278 278 278 278 277 277 277 276 276 276 276 276 276 275 275 274 273 273 272 272 271 271 271 270 270 269 268 267 266 265 265 264 263 262 261 260 260 260 259 259 258 257
280 280 281 281 280 280 280 280 280 281 281 281 281 282 282 282 282 281 281 281 281 281 280 280 280 280 280 280 280 280 280 280 279 279 279 279 279 279 279 280 280 280 280 279 279 279 278 278 278 278 278 278 278 277 277 277 276 276 275 274 273 272 271 271 271 271 270 270 269 268 267 267 266 265 264 264 264 263 262 261 260 259 259 258 258 258
280 280 280 280 280 280 281 281 280 281 281 282 282 282 281 281 282 282 282 281 281 281 281 281 281 280 280 280 280 280 279 279 279 279 279 280 280 280 281 281 281 281 281 280 280 280 280 280 280 280 280 279 279 278 279 278 278 277 276 274 274 273 273 272 272 271 270 270 269 268 268 267 267 266 265 264 264 264 263 262 261 260 259 259 258 258
279 280 280 280 280 281 282 281 280 280 281 282 282 281 280 281 281 281 282 283 283 282 282 281 281 280 280 280 279 279 279 279 279 279 279 280 280 280 281 281 281 281 281 281 281 281 281 281 281 281 280 280 279 279 279 279 278 278 277 276 276 275 274 274 273 272 272 271 270 270 269 269 268 267 267 266 265 264 264 263 262 261 260 259 259 258
279 281 281 280 280 281 281 281 281 281 281 281 280 280 281 281 281 281 282 283 283 283 283 282 282 281 281 281 281 280 280 280 280 281 281 281 281 281 281 281 281 281 281 281 282 282 282 282 282 281 281 280 280 279 279 279 279 278 277 277 277 277 277 276 275 275 274 273 272 271 270 269 269 268 268 267 266 265 265 264 263 262 261 260 259 259
280 281 280 280 281 281 280 280 280 281 281 280 280 280 281 282 282 283 283 283 283 283 283 283 283 283 282 282 282 281 281 282 282 282 282 282 282 282 281 282 282 281 282 282 283 283 283 283 283 282 281 280 280 280 279 279 278 277 277 278 279 279 278 277 276 275 274 273 273 272 271 271 270 269 268 268 267 266 265 265 264 263 262 261 260 259
Height
10751 10752 10754 10750 10744 10743 10745 10745 10746 10746 10746 10747 10747 10747 10747 10748 10748 10745 10742 10741 10740 10744 10747 10743 10743 10745 10742 10740 10737 10734 10732 10730 10726 10723 10721 10718 10714 10711 10708 10706 10706 10707 10709 10712 10714 10715 10716 10716 10715 10714 10714 10713 10713 10713 10712 10711 10710 10710 10710 10709 10708 10708 10709 10708 10707 10707 10706 10705 10703 10702 10702 10701 10701 10701 10700 10699 10698 10697 10697 10697 10697 10696 10696 10697 10697 10698
10744 10747 10748 10742 10738 10738 10739 10737 10737 10739 10740 10741 10740 10741 10742 10741 10741 10740 10737 10736 10735 10739 10743 10739 10739 10740 10736 10735 10733 10731 10730 10726 10720 10717 10716 10712 10708 10704 10702 10701 10701 10702 10702 10705 10707 10708 10709 10708 10708 10708 10708 10708 10708 10708 10707 10707 10706 10704 10704 10703 10703 10703 10702 10702 10701 10701 10700 10699 10698 10698 10697 10695 10695 10695 10694 10693 10692 10691 10691 10690 10689 10689 10690 10690 10692 10692
10738 10741 10739 10733 10732 10732 10731 10730 10730 10731 10733 10733 10732 10733 10735 10733 10733 10735 10732 10729 10730 10733 10736 10735 10735 10735 10731 10730 10729 10726 10725 10720 10714 10712 10710 10706 10702 10698 10696 10697 10696 10695 10696 10698 10699 10700 10700 10700 10701 10701 10702 10703 10704 10704 10703 10702 10701 10700 10698 10697 10697 10696 10696 10695 10695 10695 10694 10694 10694 10693 10691 10689 10689 10689 10688 10687 10687 10685 10684 10684 10684 10684 10684 10685 10686 10686
10732 10733 10730 10726 10724 10724 10724 10722 10722 10723 10725 10725 10723 10724 10727 10725 10724 10729 10727 10724 10724 10726 10728 10729 10730 10730 10726 10725 10724 10721 10720 10715 10708 10705 10703 10700 10696 10692 10691 10691 10689 10687 10689 10691 10691 10691 10690 10691 10694 10695 10696 10698 10698 10698 10698 10697 10696 10695 10694 10692 10691 10690 10690 10689 10689 10689 10689 10688 10688 10687 10686 10684 10684 10683 10682 10681 10680 10679 10679 10678 10678 10679 10679 10680 10680 10680
10724 10722 10720 10718 10716 10716 10716 10715 10713 10713 10717 10718 10714 10714 10717 10717 10715 10719 10721 10720 10720 10719 10720 10722 10724 10725 10722 10721 10719 10714 10714 10710 10703 10699 10697 10692 10689 10688 10686 10684 10681 10680 10681 10683 10682 10682 10682 10684 10687 10689 10690 10691 10691 10691 10691 10691 10690 10689 10688 10687 10685 10684 10683 10683 10683 10683 10683 10682 10681 10681 10680 10679 10678 10677 10676 10674 10673 10673 10673 10672 10672 10672 10672 10673 10673 10672
10714 10709 10709 10710 10709 10708 10708 10708 10703 10702 10709 10711 10706 10703 10705 10708 10708 10710 10711 10713 10715 10715 10714 10715 10717 10721 10719 10717 10714 10709 10707 10705 10700 10695 10691 10685 10682 10681 10681 10678 10675 10673 10672 10673 10674 10673 10674 10677 10679 10682 10683 10684 10683 10683 10683 10683 10683 10682 10681 10681 10680 10678 10677 10676 10676 10675 10675 10675 10674 10674 10673 10672 10671 10670 10669 10667 10667 10667 10667 10666 10665 10664 10664 10665 10665 10665
10705 10700 10700 10701 10701 10700 10699 10698 10692 10691 10699 10703 10698 10693 10694 10698 10699 10701 10701 10703 10707 10709 10709 10708 10709 10715 10716 10713 10709 10704 10701 10699 10695 10691 10687 10682 10677 10674 10673 10672 10670 10667 10664 10663 10665 10666 10667 10670 10673 10675 10676 10676 10675 10674 10674 10675 10675 10675 10675 10674 10674 10672 10671 10670 10670 10669 10668 10668 10667 10666 10666 10665 10664 10663 10662 10661 10661 10661 10660 10660 10659 10657 10657 10658 10657 10657
10696 10693 10694 10693 10692 10692 10690 10687 10683 10682 10687 10693 10690 10684 10685 10687 10688 10690 10691 10693 10696 10699 10701 10702 10700 10704 10710 10708 10703 10698 10696 10693 10689 10684 10681 10678 10675 10672 10667 10665 10665 10662 10658 10655 10657 10659 10662 10665 10667 10668 10668 10667 10667 10666 10666 10667 10667 10667 10667 10667 10667 10666 10665 10664 10664 10663 10662 10661 10660 10659 10659 10658 10657 10656 10656 10655 10655 10654 10653 10653 10652 10651 10651 10650 10650 10651
10687 10687 10688 10686 10684 10683 10680 10677 10675 10674 10675 10681 10680 10677 10677 10677 10678 10680 10681 10682 10685 10687 10693 10694 10689 10691 10700 10700 10695 10693 10689 10685 10681 10676 10672 10669 10668 10667 10664 10662 10659 10657 10655 10652 10651 10653 10655 10657 10658 10657 10657 10656 10657 10658 10659 10659 10659 10660 10660 10659 10659 10658 10658 10658 10657 10657 10656 10655 10654 10653 10652 10650 10650 10649 10649 10648 10648 10647 10646 10646 10644 10644 10644 10643 10643 10643
10678 10680 10680 10678 10676 10673 10670 10668 10666 10664 10665 10667 10668 10667 10667 10666 10668 10669 10670 10672 10672 10677 10683 10683 10676 10677 10687 10689 10686 10685 10680 10674 10670 10664 10660 10657 10656 10657 10658 10659 10656 10652 10651 10650 10648 10647 10647 10647 10646 10645 10646 10646 10646 10647 10650 10652 10651 10651 10652 10651 10651 10650 10650 10649 10649 10649 10648 10647 10646 10645 10644 10643 10642 10642 10642 10641 10640 10639 10639 10638 10637 10636 10637 10636 10636 10636
10669 10671 10671 10670 10667 10664 10662 10658 10656 10655 10654 10653 10654 10655 10654 10655 10658 10658 10659 10660 10659 10667 10673 10670 10665 10665 10675 10680 10677 10673 10666 10661 10658 10652 10647 10643 10642 10646 10650 10653 10652 10648 10647 10645 10643 10642 10640 10638 10635 10634 10635 10636 10635 10635 10636 10640 10642 10642 10642 10642 10642 10642 10641 10640 10640 10639 10639 10639 10638 10637 10636 10634 10633 10633 10634 10632 10631 10631 10630 10630 10629 10629 10629 10628 10628 10627
10661 10662 10662 10660 10656 10654 10651 10648 10648 10645 10642 10641 10641 10642 10641 10643 10645 10645 10647 10647 10646 10655 10660 10657 10654 10655 10666 10670 10665 10660 10653 10647 10646 10643 10637 10630 10629 10635 10639 10643 10646 10643 10639 10635 10633 10633 10632 10630 10628 10626 10626 10626 10626 10624 10622 10623 10626 10629 10631 10632 10632 10631 10631 10631 10630 10629 10629 10629 10628 10628 10626 10625 10625 10624 10624 10623 10621 10621 10621 10621 10621 10621 10621 10620 10619 10619
10653 10653 10651 10649 10646 10643 10639 10637 10637 10634 10631 10629 10628 10628 10626 10628 10630 10631 10633 10632 10633 10641 10645 10644 10643 10647 10660 10660 10651 10647 10639 10634 10634 10633 10628 10622 10621 10622 10625 10631 10635 10633 10630 10626 10623 10622 10622 10621 10620 10618 10617 10616 10616 10615 10614 10611 10610 10612 10614 10616 10618 10618 10618 10618 10618 10617 10617 10617 10617 10617 10617 10616 10616 10615 10614 10613 10612 10611 10611 10611 10611 10611 10611 10611 10610 10609
10642 10646 10644 10637 10634 10634 10629 10625 10623 10622 10620 10618 10617 10615 10611 10612 10613 10613 10613 10615 10622 10629 10630 10630 10631 10640 10652 10649 10639 10634 10626 10621 10621 10620 10618 10616 10613 10611 10611 10616 10619 10620 10619 10616 10614 10612 10611 10610 10609 10608 10608 10607 10606 10604 10604 10604 10601 10599 10599 10599 10601 10602 10602 10603 10604 10605 10605 10605 10604 10604 10605 10605 10605 10605 10604 10603 10602 10601 10601 10601 10601 10601 10601 10600 10599 10598
10627 10636 10641 10628 10620 10624 10621 10614 10610 10609 10608 10607 10607 10602 10600 10602 10597 10589 10590 10597 10608 10612 10613 10617 10621 10632 10642 10636 10628 10622 10613 10609 10609 10610 10609 10605 10601 10599 10598 10600 10602 10604 10604 10602 10602 10601 10599 10598 10596 10596 10596 10597 10597 10595 10594 10593 10591 10590 10589 10588 10588 10587 10587 10587 10588 10590 10591 10592 10593 10592 10592 10592 10592 10592 10592 10592 10591 10591 10591 10591 10591 10591 10590 10589 10588 10588
10610 10622 10633 10620 10610 10615 10613 10605 10601 10597 10595 10596 10596 10591 10590 10590 10582 10572 10572 10580 10587 10587 10594 10604 10606 10617 10627 10621 10617 10610 10600 10599 10600 10600 10598 10592 10588 10585 10584 10586 10586 10588 10588 10587 10586 10586 10585 10585 10584 10584 10583 10583 10584 10584 10584 10582 10580 10578 10577 10577 10577 10576 10576 10575 10574 10575 10575 10575 10577 10579 10580 10580 10580 10580 10579 10579 10578 10578 10579 10579 10579 10579 10578 10577 10577 10577
10594 10606 10619 10612 10602 10604 10603 10599 10594 10588 10584 10584 10583 10581 10579 10574 10568 10565 10561 10564 10566 10563 10575 10588 10588 10598 10605 10603 10605 10597 10586 10588 10589 10587 10585 10579 10575 10571 10570 10571 10571 10572 10572 10570 10570 10569 10569 10569 10569 10570 10570 10569 10570 10569 10570 10570 10567 10565 10564 10564 10564 10564 10564 10563 10563 10563 10562 10561 10560 10561 10563 10565 10567 10567 10567 10566 10565 10565 10565 10564 10564 10564 10563 10563 10562 10562
10576 10585 10601 10603 10594 10589 10591 10590 10585 10582 10578 10572 10567 10566 10565 10560 10559 10556 10549 10547 10548 10544 10554 10567 10572 10579 10582 10585 10590 10579 10568 10572 10573 10571 10570 10565 10561 10558 10556 10556 10554 10555 10556 10554 10555 10554 10553 10552 10552 10553 10554 10554 10554 10554 10556 10556 10553 10551 10549 10549 10549 10549 10550 10549 10549 10549 10549 10549 10547 10547 10547 10547 10549 10550 10551 10552 10552 10551 10551 10550 10550 10549 10549 10548 10547 10547
10561 10561 10577 10592 10586 10575 10574 10576 10574 10571 10565 10557 10552 10552 10552 10550 10547 10544 10537 10533 10532 10527 10531 10543 10552 10560 10565 10571 10571 10559 10554 10557 10553 10551 10550 10546 10545 10542 10539 10538 10538 10538 10539 10539 10540 10539 10537 10535 10534 10534 10535 10535 10536 10536 10538 10539 10538 10537 10534 10533 10533 10533 10534 10533 10534 10534 10534 10534 10533 10533 10533 10533 10532 10532 10533 10534 10535 10536 10536 10536 10535 10535 10534 10534 10533 10533
10548 10540 10549 10571 10576 10563 10560 10564 10561 10553 10545 10539 10538 10538 10537 10536 10533 10529 10523 10519 10517 10512 10513 10516 10521 10535 10551 10556 10549 10541 10542 10542 10536 10535 10534 10529 10526 10522 10520 10520 10520 10520 10520 10520 10521 10522 10521 10519 10517 10516 10515 10516 10517 10518 10519 10521 10521 10521 10519 10518 10518 10517 10517 10517 10517 10518 10518 10518 10517 10517 10517 10517 10518 10518 10517 10517 10517 10518 10519 10519 10520 10519 10519 10519 10518 10518
10535 10527 10527 10543 10555 10553 10550 10550 10544 10535 10530 10526 10523 10519 10518 10519 10517 10511 10506 10506 10503 10496 10495 10494 10492 10505 10527 10533 10529 10527 10525 10522 10520 10520 10517 10513 10510 10507 10506 10505 10503 10501 10500 10499 10500 10500 10501 10499 10497 10495 10494 10494 10495 10497 10500 10502 10504 10504 10503 10502 10501 10501 10501 10501 10501 10500 10500 10500 10500 10500 10501 10500 10500 10501 10502 10502 10502 10502 10502 10502 10503 10503 10503 10503 10503 10502
10519 10515 10511 10517 10530 10536 10536 10532 10525 10519 10518 10514 10506 10502 10501 10501 10498 10491 10488 10492 10491 10479 10475 10473 10468 10477 10496 10504 10506 10506 10501 10498 10499 10498 10496 10495 10494 10492 10491 10489 10487 10485 10482 10480 10480 10479 10480 10479 10476 10474 10473 10472 10473 10475 10478 10481 10483 10485 10485 10485 10484 10484 10484 10484 10484 10484 10483 10482 10481 10482 10483 10483 10483 10483 10484 10484 10485 10485 10486 10486 10487 10487 10487 10487 10486 10485
10503 10499 10497 10498 10505 10511 10514 10514 10509 10504 10502 10497 10490 10488 10487 10483 10481 10476 10470 10473 10473 10466 10462 10456 10447 10452 10468 10476 10477 10476 10475 10474 10473 10473 10473 10472 10472 10472 10471 10470 10468 10466 10464 10462 10461 10460 10459 10459 10458 10456 10455 10454 10454 10455 10457 10459 10461 10463 10464 10465 10465 10465 10466 10466 10466 10466 10465 10465 10464 10463 10464 10464 10464 10464 10466 10467 10467 10467 10467 10468 10469 10470 10470 10471 10469 10469
10486 10483 10481 10480 10483 10487 10492 10494 10491 10485 10481 10475 10471 10472 10470 10467 10467 10462 10455 10453 10449 10445 10447 10442 10433 10436 10446 10449 10447 10446 10448 10450 10448 10448 10448 10448 10449 10449 10448 10448 10447 10445 10444 10442 10441 10441 10440 10439 10439 10438 10437 10437 10436 10436 10437 10439 10440 10441 10442 10443 10444 10444 10445 10446 10446 10446 10446 10446 10446 10445 10446 10445 10445 10444 10445 10446 10447 10448 10448 10449 10450 10451 10452 10452 10452 10452
10467 10466 10464 10460 10460 10465 10471 10476 10473 10465 10458 10452 10450 10452 10451 10450 10450 10444 10440 10434 10423 10421 10428 10423 10416 10421 10428 10426 10423 10421 10420 10420 10421 10422 10423 10425 10427 10427 10427 10427 10426 10424 10424 10422 10422 10422 10420 10420 10420 10419 10419 10419 10418 10417 10417 10417 10418 10420 10421 10422 10423 10424 10424 10425 10425 10425 10425 10425 10426 10427 10427 10427 10427 10427 10426 10426 10426 10427 10428 10429 10430 10431 10432 10432 10433 10433
10446 10445 10446 10442 10438 10439 10446 10453 10452 10446 10437 10431 10431 10432 10430 10430 10429 10424 10420 10414 10405 10402 10403 10397 10395 10402 10406 10402 10400 10401 10397 10393 10393 10395 10398 10401 10403 10404 10405 10404 10404 10404 10403 10402 10401 10400 10400 10400 10400 10400 10400 10400 10399 10399 10398 10398 10398 10398 10399 10400 10402 10403 10404 10404 10404 10405 10404 10404 10405 10406 10407 10408 10409 10409 10408 10408 10408 10408 10408 10408 10410 10410 10411 10411 10412 10412
10425 10424 10426 10423 10417 10416 10421 10426 10427 10422 10413 10409 10412 10414 10412 10409 10407 10402 10397 10393 10390 10382 10373 10375 10379 10376 10376 10379 10379 10379 10376 10372 10371 10373 10375 10378 10379 10380 10381 10381 10381 10382 10381 10380 10380 10379 10379 10379 10378 10379 10380 10380 10380 10380 10379 10379 10378 10378 10378 10378 10379 10381 10381 10382 10382 10383 10383 10383 10383 10383 10384 10386 10387 10388 10388 10388 10388 10389 10388 10388 10389 10389 10389 10389 10389 10390
10403 10401 10406 10402 10393 10395 10401 10402 10400 10395 10387 10384 10388 10395 10397 10394 10390 10384 10376 10371 10369 10355 10345 10357 10363 10350 10348 10359 10361 10357 10355 10354 10353 10352 10352 10354 10356 10358 10359 10359 10360 10360 10360 10359 10359 10358 10358 10357 10357 10358 10358 10358 10359 10358 10358 10358 10358 10358 10358 10358 10358 10358 10358 10359 10359 10359 10360 10361 10362 10362 10361 10362 10362 10363 10364 10365 10365 10366 10367 10367 10367 10367 10366 10366 10366 10367
10380 10380 10386 10379 10370 10375 10380 10379 10377 10371 10364 10362 10366 10372 10377 10380 10377 10368 10357 10353 10347 10330 10322 10336 10342 10333 10333 10339 10338 10336 10336 10334 10332 10331 10330 10332 10335 10336 10337 10338 10337 10338 10338 10338 10338 10339 10339 10338 10337 10337 10336 10336 10336 10336 10336 10336 10337 10337 10337 10336 10337 10337 10336 10337 10336 10336 10336 10337 10337 10338 10339 10339 10339 10340 10340 10340 10341 10342 10343 10344 10345 10346 10346 10344 10343 10342
10359 10361 10364 10356 10351 10355 10359 10359 10355 10347 10344 10348 10350 10352 10358 10363 10360 10347 10336 10332 10324 10310 10308 10315 10317 10318 10322 10321 10315 10314 10315 10314 10314 10314 10314 10313 10313 10314 10314 10316 10317 10317 10318 10318 10318 10318 10318 10317 10317 10316 10315 10315 10315 10315 10315 10314 10314 10315 10315 10314 10315 10314 10314 10315 10315 10315 10314 10314 10314 10314 10314 10316 10316 10317 10317 10317 10317 10318 10319 10321 10322 10324 10326 10325 10324 10322
10340 10342 10343 10336 10330 10335 10344 10344 10335 10328 10327 10331 10336 10341 10346 10343 10331 10320 10314 10309 10302 10296 10298 10298 10294 10298 10305 10303 10295 10292 10293 10296 10298 10299 10298 10296 10294 10293 10293 10294 10296 10298 10299 10299 10298 10296 10296 10295 10295 10295 10295 10294 10294 10294 10293 10292 10293 10293 10293 10292 10291 10291 10292 10292 10293 10293 10293 10293 10293 10293 10294 10294 10294 10294 10294 10293 10293 10294 10295 10298 10300 10302 10303 10305 10305 10304
10321 10320 10322 10317 10307 10315 10330 10325 10315 10314 10312 10315 10327 10335 10330 10316 10302 10296 10294 10290 10285 10281 10281 10280 10277 10279 10283 10282 10277 10274 10275 10279 10281 10282 10282 10280 10277 10276 10275 10276 10277 10277 10278 10278 10277 10276 10275 10274 10273 10273 10273 10273 10272 10272 10271 10270 10271 10271 10272 10271 10270 10270 10270 10270 10271 10271 10271 10272 10273 10274 10275 10275 10275 10274 10274 10273 10272 10271 10271 10273 10276 10279 10281 10283 10284 10284
10306 10301 10303 10300 10289 10297 10312 10306 10296 10295 10294 10306 10323 10318 10302 10292 10286 10280 10277 10274 10271 10264 10260 10262 10263 10261 10261 10260 10259 10257 10257 10260 10263 10265 10265 10263 10261 10260 10259 10259 10259 10257 10257 10256 10256 10256 10255 10254 10254 10253 10252 10251 10251 10250 10249 10248 10248 10250 10251 10251 10250 10249 10250 10250 10251 10250 10250 10251 10251 10253 10254 10255 10256 10256 10255 10255 10254 10253 10252 10251 10252 10255 10258 10261 10263 10263
10292 10285 10283 10281 10273 10279 10293 10288 10275 10273 10282 10300 10306 10291 10278 10276 10271 10263 10260 10260 10258 10250 10244 10243 10242 10241 10240 10241 10241 10241 10242 10243 10245 10248 10248 10247 10246 10244 10242 10240 10239 10237 10237 10235 10235 10234 10233 10233 10233 10232 10232 10232 10231 10230 10228 10226 10225 10227 10230 10231 10230 10230 10230 10230 10230 10230 10230 10230 10231 10233 10234 10235 10237 10237 10236 10235 10235 10236 10235 10233 10232 10233 10234 10238 10241 10242
10276 10271 10265 10263 10258 10258 10268 10267 10255 10257 10274 10284 10279 10270 10263 10255 10247 10244 10247 10248 10244 10238 10231 10225 10220 10219 10220 10221 10223 10224 10225 10227 10231 10234 10234 10230 10227 10226 10225 10224 10221 10217 10217 10216 10214 10214 10214 10213 10213 10213 10213 10213 10212 10211 10208 10206 10204 10205 10207 10209 10209 10210 10210 10210 10210 10210 10209 10210 10213 10214 10215 10216 10217 10218 10218 10218 10217 10217 10217 10216 10215 10214 10214 10216 10218 10220
10256 10253 10248 10247 10243 10240 10244 10246 10239 10244 10259 10264 10258 10254 10245 10232 10228 10230 10233 10235 10232 10223 10217 10209 10203 10202 10202 10202 10203 10204 10206 10211 10217 10221 10218 10210 10205 10203 10204 10207 10206 10201 10199 10198 10196 10196 10196 10195 10195 10196 10195 10194 10193 10191 10188 10186 10186 10186 10187 10187 10186 10187 10188 10189 10190 10189 10188 10191 10195 10198 10197 10197 10197 10198 10199 10199 10199 10200 10199 10198 10197 10196 10195 10196 10198 10199
10234 10232 10230 10227 10227 10225 10225 10228 10228 10229 10239 10245 10242 10234 10222 10214 10216 10217 10216 10221 10220 10211 10202 10195 10189 10188 10187 10186 10186 10187 10190 10195 10202 10207 10202 10191 10184 10181 10181 10186 10188 10185 10182 10180 10178 10177 10177 10177 10177 10178 10178 10177 10175 10172 10169 10167 10168 10169 10170 10170 10168 10166 10167 10168 10168 10166 10167 10172 10178 10180 10180 10178 10179 10180 10180 10180 10180 10181 10181 10180 10179 10178 10176 10177 10179 10180
10217 10215 10212 10207 10209 10211 10206 10207 10214 10216 10220 10226 10223 10214 10203 10199 10202 10200 10195 10202 10209 10201 10187 10180 10179 10177 10173 10172 10172 10172 10173 10177 10185 10192 10186 10174 10167 10163 10161 10164 10166 10166 10165 10163 10159 10158 10158 10158 10159 10160 10160 10159 10158 10155 10151 10150 10152 10153 10154 10154 10152 10149 10149 10149 10146 10144 10148 10154 10158 10160 10160 10159 10160 10161 10162 10161 10161 10161 10161 10161 10161 10160 10158 10158 10160 10162
10205 10202 10199 10192 10195 10198 10190 10189 10197 10200 10202 10204 10199 10192 10188 10186 10185 10180 10173 10182 10196 10188 10170 10166 10170 10167 10160 10158 10158 10158 10159 10161 10167 10171 10167 10159 10155 10149 10144 10144 10145 10145 10145 10145 10143 10141 10141 10141 10141 10142 10141 10140 10138 10136 10133 10132 10134 10136 10138 10138 10135 10133 10133 10130 10127 10127 10132 10136 10139 10139 10139 10138 10139 10139 10140 10141 10141 10141 10141 10141 10142 10142 10140 10140 10141 10142
10193 10190 10186 10182 10184 10185 10178 10176 10180 10183 10186 10184 10173 10168 10171 10171 10167 10161 10157 10165 10174 10170 10160 10158 10157 10154 10149 10145 10144 10144 10144 10143 10145 10150 10150 10146 10143 10137 10129 10125 10125 10125 10125 10125 10125 10124 10124 10125 10125 10124 10123 10121 10118 10116 10114 10114 10117 10120 10121 10119 10118 10117 10114 10111 10112 10115 10117 10118 10118 10118 10117 10116 10116 10117 10118 10119 10120 10121 10121 10122 10122 10123 10122 10122 10123 10125
10181 10177 10176 10176 10176 10172 10165 10162 10164 10171 10176 10166 10149 10145 10151 10150 10147 10147 10148 10149 10150 10151 10152 10148 10141 10138 10136 10133 10130 10128 10126 10126 10127 10131 10133 10132 10129 10125 10118 10110 10108 10109 10108 10107 10106 10105 10105 10107 10107 10106 10106 10104 10100 10097 10096 10095 10098 10102 10102 10099 10098 10096 10093 10094 10099 10101 10099 10098 10098 10097 10095 10094 10093 10094 10095 10097 10098 10099 10101 10102 10103 10103 10103 10103 10104 10107
10165 10163 10166 10168 10162 10155 10152 10151 10151 10158 10161 10146 10131 10130 10132 10128 10129 10134 10135 10133 10133 10136 10137 10132 10127 10124 10119 10118 10117 10114 10112 10113 10112 10111 10114 10115 10113 10110 10105 10098 10095 10094 10093 10091 10090 10087 10088 10090 10090 10088 10088 10086 10082 10080 10078 10076 10079 10082 10081 10079 10076 10074 10074 10077 10081 10081 10080 10080 10080 10077 10075 10073 10071 10072 10074 10075 10076 10076 10080 10083 10083 10082 10084 10085 10086 10088
10150 10148 10152 10154 10145 10139 10142 10144 10139 10137 10136 10128 10120 10120 10119 10114 10115 10118 10118 10118 10120 10119 10117 10115 10114 10109 10103 10103 10104 10101 10100 10100 10098 10096 10097 10097 10095 10092 10089 10085 10082 10079 10078 10076 10073 10071 10072 10074 10075 10073 10072 10070 10065 10061 10060 10059 10061 10063 10062 10060 10058 10055 10056 10060 10061 10060 10061 10061 10060 10058 10056 10053 10052 10051 10052 10054 10054 10054 10059 10064 10064 10063 10064 10066 10067 10069
10136 10135 10138 10139 10131 10125 10132 10136 10123 10112 10114 10116 10111 10107 10105 10104 10104 10103 10103 10105 10106 10103 10099 10098 10097 10095 10091 10089 10089 10088 10086 10084 10082 10081 10080 10079 10078 10075 10071 10070 10068 10065 10063 10061 10059 10058 10057 10058 10059 10057 10056 10054 10048 10044 10043 10042 10044 10047 10046 10043 10041 10040 10040 10041 10041 10041 10042 10041 10039 10038 10036 10035 10034 10034 10034 10035 10035 10035 10039 10044 10044 10043 10046 10048 10049 10051
10124 10121 10123 10125 10118 10112 10120 10123 10104 10090 10100 10107 10101 10094 10091 10090 10091 10091 10090 10093 10094 10090 10086 10082 10081 10080 10077 10075 10075 10074 10072 10069 10067 10066 10064 10063 10061 10057 10054 10054 10052 10050 10049 10048 10046 10045 10043 10043 10043 10042 10041 10039 10033 10028 10028 10027 10026 10029 10030 10028 10025 10024 10024 10024 10023 10023 10023 10022 10021 10021 10019 10018 10019 10019 10018 10017 10017 10018 10022 10025 10025 10025 10027 10029 10029 10032
10111 10107 10108 10110 10104 10099 10105 10104 10085 10077 10090 10095 10087 10082 10078 10076 10079 10078 10076 10078 10079 10077 10074 10070 10068 10066 10064 10062 10062 10060 10057 10056 10053 10051 10049 10047 10045 10042 10040 10039 10038 10035 10035 10034 10032 10031 10029 10027 10027 10026 10025 10025 10019 10013 10013 10012 10009 10010 10013 10012 10009 10007 10007 10007 10007 10007 10007 10005 10004 10002 10001 10000 10001 10001 9999 9998 9998 9999 10003 10006 10006 10007 10009 10010 10011 10014
10095 10093 10097 10096 10088 10084 10089 10087 10073 10069 10079 10080 10073 10070 10066 10063 10064 10064 10061 10063 10064 10062 10060 10058 10055 10054 10051 10049 10048 10046 10044 10041 10039 10038 10036 10032 10030 10029 10026 10025 10025 10022 10020 10018 10016 10015 10014 10013 10012 10011 10010 10009 10004 9998 9997 9996 9993 9993 9994 9993 9991 9989 9991 9993 9992 9992 9991 9988 9985 9983 9982 9981 9983 9983 9982 9980 9979 9980 9983 9987 9987 9988 9991 9992 9992 9994
10077 10082 10086 10080 10074 10072 10074 10073 10064 10059 10065 10068 10062 10057 10054 10052 10050 10047 10046 10049 10049 10047 10048 10046 10042 10041 10039 10035 10034 10033 10030 10028 10025 10025 10023 10020 10017 10016 10014 10012 10011 10008 10005 10002 10000 9999 9999 9999 9998 9997 9994 9992 9988 9985 9983 9980 9976 9974 9974 9974 9973 9974 9977 9979 9977 9975 9974 9971 9968 9968 9967 9965 9966 9967 9966 9966 9965 9964 9967 9969 9970 9971 9974 9976 9974 9974
10059 10071 10072 10063 10063 10064 10060 10056 10050 10046 10054 10058 10049 10041 10041 10042 10039 10035 10034 10034 10033 10032 10032 10031 10029 10027 10025 10022 10021 10020 10017 10015 10013 10011 10011 10009 10006 10004 10002 10000 9997 9994 9991 9989 9986 9984 9984 9983 9983 9982 9979 9976 9973 9971 9969 9965 9960 9957 9957 9957 9958 9959 9961 9963 9962 9960 9959 9956 9954 9954 9953 9950 9950 9950 9950 9951 9951 9950 9951 9953 9953 9953 9958 9961 9958 9956
10044 10060 10057 10047 10052 10056 10048 10041 10034 10032 10041 10046 10036 10028 10029 10028 10026 10025 10025 10022 10020 10018 10016 10015 10014 10012 10010 10008 10007 10006 10004 10002 10000 9998 9998 9996 9994 9992 9989 9986 9984 9981 9978 9975 9974 9973 9970 9967 9967 9966 9964 9961 9958 9957 9956 9952 9947 9943 9941 9941 9944 9946 9947 9948 9948 9946 9943 9940 9939 9938 9937 9936 9936 9935 9934 9935 9936 9935 9936 9937 9937 9937 9941 9944 9942 9940
10031 10047 10042 10033 10039 10044 10038 10030 10023 10019 10026 10030 10024 10020 10019 10015 10013 10013 10012 10009 10008 10005 10002 10000 9999 9997 9995 9994 9992 9991 9991 9989 9987 9985 9983 9982 9980 9977 9975 9973 9971 9969 9966 9963 9962 9961 9957 9954 9951 9949 9948 9947 9945 9944 9942 9938 9933 9929 9929 9930 9933 9934 9934 9932 9932 9931 9928 9925 9924 9922 9921 9922 9922 9920 9919 9920 9920 9921 9922 9922 9921 9921 9923 9926 9926 9924